Time,TemperatureF,DewpointF,PressureIn,WindDirection,WindDirectionDegrees,WindSpeedMPH,WindSpeedGustMPH,Humidity,HourlyPrecipIn,Conditions,Clouds,dailyrainin,SoftwareType,DateUTC
2013-01-21 00:00:00,-4.7,-14.4,29.93,NNW,328,1.0,14.0,62,0.00,CLR,,0.00,WeatherDisplay:10.37,2013-01-21 06:00:00,
2013-01-21 00:10:00,-4.9,-14.6,29.93,WNW,287,2.0,16.0,62,0.00,CLR,,0.00,WeatherDisplay:10.37,2013-01-21 06:10:00,
2013-01-21 00:15:00,-5.1,-14.8,29.93,WNW,292,7.0,8.0,62,0.00,CLR,,0.00,WeatherDisplay:10.37,2013-01-21 06:15:00,
2013-01-21 00:20:00,-5.1,-14.8,29.93,WNW,296,0.0,7.0,62,0.00,CLR,,0.00,WeatherDisplay:10.37,2013-01-21 06:20:00,
2013-01-21 00:25:00,-5.3,-15.0,29.93,WNW,297,0.0,8.0,62,0.00,CLR,,0.00,WeatherDisplay:10.37,2013-01-21 06:25:00,
2013-01-21 00:30:00,-5.3,-15.0,29.93,NW,309,8.0,8.0,62,0.00,CLR,,0.00,WeatherDisplay:10.37,2013-01-21 06:30:00,
2013-01-21 00:35:00,-5.3,-15.0,29.93,NNW,335,1.0,8.0,62,0.00,CLR,,0.00,WeatherDisplay:10.37,2013-01-21 06:35:00,
2013-01-21 00:40:00,-5.4,-15.1,29.93,NNW,339,5.0,9.0,62,0.00,CLR,,0.00,WeatherDisplay:10.37,2013-01-21 06:40:00,
2013-01-21 00:45:00,-5.6,-15.3,29.93,NW,305,0.0,9.0,62,0.00,CLR,,0.00,WeatherDisplay:10.37,2013-01-21 06:45:00,
2013-01-21 00:50:00,-5.8,-15.5,29.93,NW,311,0.0,12.0,62,0.00,CLR,,0.00,WeatherDisplay:10.37,2013-01-21 06:50:00,
2013-01-21 00:55:00,-5.8,-15.5,29.93,NW,321,8.0,8.0,62,0.00,CLR,,0.00,WeatherDisplay:10.37,2013-01-21 06:55:00,
2013-01-21 01:00:00,-6.0,-15.6,29.93,NW,305,14.0,15.0,62,0.00,CLR,,0.00,WeatherDisplay:10.37,2013-01-21 07:00:00,
2013-01-21 01:05:00,-6.0,-15.6,29.93,NW,306,3.0,16.0,62,0.00,CLR,,0.00,WeatherDisplay:10.37,2013-01-21 07:05:00,
2013-01-21 01:10:00,-6.0,-15.6,29.93,NW,308,8.0,13.0,62,0.00,CLR,,0.00,WeatherDisplay:10.37,2013-01-21 07:10:00,
2013-01-21 01:15:00,-6.0,-15.6,29.93,NW,310,6.0,13.0,62,0.00,CLR,,0.00,WeatherDisplay:10.37,2013-01-21 07:15:00,
2013-01-21 01:20:00,-6.2,-15.8,29.93,WNW,297,8.0,8.0,62,0.00,CLR,,0.00,WeatherDisplay:10.37,2013-01-21 07:20:00,
2013-01-21 01:25:00,-6.3,-16.0,29.93,WNW,284,2.0,8.0,62,0.00,CLR,,0.00,WeatherDisplay:10.37,2013-01-21 07:25:00,
2013-01-21 01:30:00,-6.5,-15.8,29.93,WNW,298,8.0,12.0,63,0.00,CLR,,0.00,WeatherDisplay:10.37,2013-01-21 07:30:00,
2013-01-21 01:35:00,-6.5,-15.8,29.93,WNW,302,0.0,0.0,63,0.00,CLR,,0.00,WeatherDisplay:10.37,2013-01-21 07:35:00,
2013-01-21 01:40:00,-6.5,-15.8,29.93,WNW,291,5.0,6.0,63,0.00,CLR,,0.00,WeatherDisplay:10.37,2013-01-21 07:40:00,
2013-01-21 01:45:00,-6.7,-16.0,29.94,WNW,292,7.0,7.0,63,0.00,CLR,,0.00,WeatherDisplay:10.37,2013-01-21 07:45:00,
2013-01-21 01:50:00,-6.7,-16.0,29.94,WNW,286,8.0,8.0,63,0.00,CLR,,0.00,WeatherDisplay:10.37,2013-01-21 07:50:00,
2013-01-21 01:55:00,-6.9,-16.2,29.94,WNW,295,0.0,11.0,63,0.00,CLR,,0.00,WeatherDisplay:10.37,2013-01-21 07:55:00,
2013-01-21 02:00:00,-6.9,-16.2,29.94,NW,305,5.0,7.0,63,0.00,CLR,,0.00,WeatherDisplay:10.37,2013-01-21 08:00:00,
2013-01-21 02:05:00,-6.9,-16.2,29.94,WNW,291,3.0,7.0,63,0.00,CLR,,0.00,WeatherDisplay:10.37,2013-01-21 08:05:00,
2013-01-21 02:10:00,-7.1,-16.0,29.94,West,278,0.0,7.0,64,0.00,CLR,,0.00,WeatherDisplay:10.37,2013-01-21 08:10:00,
2013-01-21 02:20:00,-7.2,-16.2,29.95,NW,307,9.0,10.0,64,0.00,CLR,,0.00,WeatherDisplay:10.37,2013-01-21 08:20:00,
2013-01-21 02:25:00,-7.2,-16.5,29.95,NW,305,14.0,14.0,63,0.00,CLR,,0.00,WeatherDisplay:10.37,2013-01-21 08:25:00,
2013-01-21 02:30:00,-7.2,-16.5,29.95,WNW,296,1.0,14.0,63,0.00,CLR,,0.00,WeatherDisplay:10.37,2013-01-21 08:30:00,
2013-01-21 02:35:00,-7.4,-16.7,29.95,WNW,297,0.0,6.0,63,0.00,CLR,,0.00,WeatherDisplay:10.37,2013-01-21 08:35:00,
2013-01-21 02:40:00,-7.4,-16.4,29.95,WNW,288,0.0,14.0,64,0.00,CLR,,0.00,WeatherDisplay:10.37,2013-01-21 08:40:00,
2013-01-21 02:45:00,-7.4,-16.4,29.95,WNW,285,0.0,8.0,64,0.00,CLR,,0.00,WeatherDisplay:10.37,2013-01-21 08:45:00,
2013-01-21 02:50:00,-7.4,-16.4,29.95,West,270,7.0,7.0,64,0.00,CLR,,0.00,WeatherDisplay:10.37,2013-01-21 08:50:00,
2013-01-21 02:55:00,-7.7,-16.7,29.95,WNW,292,5.0,7.0,64,0.00,CLR,,0.00,WeatherDisplay:10.37,2013-01-21 08:55:00,
2013-01-21 03:00:00,-7.8,-17.0,29.95,NW,304,7.0,9.0,63,0.00,CLR,,0.00,WeatherDisplay:10.37,2013-01-21 09:00:00,
2013-01-21 03:05:00,-7.8,-17.0,29.95,WNW,298,8.0,9.0,63,0.00,CLR,,0.00,WeatherDisplay:10.37,2013-01-21 09:05:00,
2013-01-21 03:10:00,-7.8,-17.0,29.95,NW,308,14.0,14.0,63,0.00,CLR,,0.00,WeatherDisplay:10.37,2013-01-21 09:10:00,
2013-01-21 03:15:00,-8.0,-17.2,29.95,NW,308,12.0,21.0,63,0.00,CLR,,0.00,WeatherDisplay:10.37,2013-01-21 09:15:00,
2013-01-21 03:20:00,-8.0,-17.2,29.95,WNW,295,9.0,21.0,63,0.00,CLR,,0.00,WeatherDisplay:10.37,2013-01-21 09:20:00,
2013-01-21 03:25:00,-8.0,-17.2,29.95,WNW,292,6.0,9.0,63,0.00,CLR,,0.00,WeatherDisplay:10.37,2013-01-21 09:25:00,
2013-01-21 03:30:00,-8.3,-17.9,29.95,NW,305,0.0,0.0,62,0.00,CLR,,0.00,WeatherDisplay:10.37,2013-01-21 09:30:00,
2013-01-21 03:35:00,-8.3,-17.9,29.95,NW,310,6.0,6.0,62,0.00,CLR,,0.00,WeatherDisplay:10.37,2013-01-21 09:35:00,
2013-01-21 03:40:00,-8.5,-18.0,29.96,WNW,292,8.0,14.0,62,0.00,CLR,,0.00,WeatherDisplay:10.37,2013-01-21 09:40:00,
2013-01-21 03:45:00,-8.6,-18.2,29.95,NW,304,8.0,14.0,62,0.00,CLR,,0.00,WeatherDisplay:10.37,2013-01-21 09:45:00,
2013-01-21 03:50:00,-8.7,-18.2,29.96,NW,305,2.0,10.0,62,0.00,CLR,,0.00,WeatherDisplay:10.37,2013-01-21 09:50:00,
2013-01-21 03:55:00,-8.9,-18.4,29.96,NW,310,9.0,16.0,62,0.00,CLR,,0.00,WeatherDisplay:10.37,2013-01-21 09:55:00,
2013-01-21 04:00:00,-8.9,-18.7,29.96,NW,314,12.0,16.0,61,0.00,CLR,,0.00,WeatherDisplay:10.37,2013-01-21 10:00:00,
2013-01-21 04:05:00,-8.9,-19.0,29.96,WNW,299,0.0,16.0,60,0.00,CLR,,0.00,WeatherDisplay:10.37,2013-01-21 10:05:00,
2013-01-21 04:10:00,-9.0,-19.2,29.96,WNW,287,1.0,10.0,60,0.00,CLR,,0.00,WeatherDisplay:10.37,2013-01-21 10:10:00,
2013-01-21 04:15:00,-9.4,-19.5,29.95,NW,305,7.0,13.0,60,0.00,CLR,,0.00,WeatherDisplay:10.37,2013-01-21 10:15:00,
2013-01-21 04:20:00,-9.6,-19.7,29.95,WNW,302,7.0,7.0,60,0.00,CLR,,0.00,WeatherDisplay:10.37,2013-01-21 10:20:00,
2013-01-21 04:25:00,-9.7,-19.8,29.95,West,277,1.0,10.0,60,0.00,CLR,,0.00,WeatherDisplay:10.37,2013-01-21 10:25:00,
2013-01-21 04:30:00,-9.8,-19.9,29.95,NW,309,8.0,10.0,60,0.00,CLR,,0.00,WeatherDisplay:10.37,2013-01-21 10:30:00,
2013-01-21 04:35:00,-9.9,-20.0,29.96,NW,317,1.0,8.0,60,0.00,CLR,,0.00,WeatherDisplay:10.37,2013-01-21 10:35:00,
2013-01-21 04:40:00,-10.1,-20.2,29.96,NW,304,2.0,10.0,60,0.00,CLR,,0.00,WeatherDisplay:10.37,2013-01-21 10:40:00,
2013-01-21 04:45:00,-10.3,-20.4,29.96,NW,305,10.0,12.0,60,0.00,CLR,,0.00,WeatherDisplay:10.37,2013-01-21 10:45:00,
2013-01-21 04:50:00,-10.5,-20.6,29.95,NW,309,8.0,12.0,60,0.00,CLR,,0.00,WeatherDisplay:10.37,2013-01-21 10:50:00,
2013-01-21 04:55:00,-10.5,-20.9,29.95,NW,311,1.0,12.0,59,0.00,CLR,,0.00,WeatherDisplay:10.37,2013-01-21 10:55:00,
2013-01-21 05:00:00,-10.7,-21.1,29.96,WNW,303,2.0,8.0,59,0.00,CLR,,0.00,WeatherDisplay:10.37,2013-01-21 11:00:00,
2013-01-21 05:05:00,-10.8,-21.2,29.96,WNW,302,7.0,7.0,59,0.00,CLR,,0.00,WeatherDisplay:10.37,2013-01-21 11:05:00,
2013-01-21 05:10:00,-11.0,-21.4,29.96,SW,223,0.0,7.0,59,0.00,CLR,,0.00,WeatherDisplay:10.37,2013-01-21 11:10:00,
2013-01-21 05:15:00,-11.4,-21.7,29.96,West,280,2.0,7.0,59,0.00,CLR,,0.00,WeatherDisplay:10.37,2013-01-21 11:15:00,
2013-01-21 05:20:00,-11.4,-21.7,29.95,NW,316,13.0,13.0,59,0.00,CLR,,0.00,WeatherDisplay:10.37,2013-01-21 11:20:00,
2013-01-21 05:25:00,-11.4,-21.7,29.95,WNW,286,1.0,13.0,59,0.00,CLR,,0.00,WeatherDisplay:10.37,2013-01-21 11:25:00,
2013-01-21 05:30:00,-11.6,-21.9,29.96,West,265,6.0,9.0,59,0.00,CLR,,0.00,WeatherDisplay:10.37,2013-01-21 11:30:00,
2013-01-21 05:35:00,-11.6,-21.6,29.96,West,263,2.0,5.0,60,0.00,CLR,,0.00,WeatherDisplay:10.37,2013-01-21 11:35:00,
2013-01-21 05:40:00,-11.6,-21.6,29.96,NW,308,7.0,8.0,60,0.00,CLR,,0.00,WeatherDisplay:10.37,2013-01-21 11:40:00,
2013-01-21 05:45:00,-11.9,-21.9,29.96,WNW,303,0.0,5.0,60,0.00,CLR,,0.00,WeatherDisplay:10.37,2013-01-21 11:45:00,
2013-01-21 05:50:00,-11.9,-21.9,29.96,WNW,288,9.0,9.0,60,0.00,CLR,,0.00,WeatherDisplay:10.37,2013-01-21 11:50:00,
2013-01-21 05:55:00,-11.9,-21.9,29.96,West,277,0.0,15.0,60,0.00,CLR,,0.00,WeatherDisplay:10.37,2013-01-21 11:55:00,
2013-01-21 06:00:00,-12.1,-22.1,29.96,West,280,1.0,14.0,60,0.00,CLR,,0.00,WeatherDisplay:10.37,2013-01-21 12:00:00,
2013-01-21 06:05:00,-12.1,-22.1,29.97,West,266,7.0,14.0,60,0.00,CLR,,0.00,WeatherDisplay:10.37,2013-01-21 12:05:00,
2013-01-21 06:10:00,-12.2,-22.2,29.97,West,269,10.0,10.0,60,0.00,CLR,,0.00,WeatherDisplay:10.37,2013-01-21 12:10:00,
2013-01-21 06:15:00,-12.3,-22.3,29.97,WNW,283,1.0,8.0,60,0.00,CLR,,0.00,WeatherDisplay:10.37,2013-01-21 12:15:00,
2013-01-21 06:20:00,-12.5,-22.4,29.97,WNW,300,8.0,8.0,60,0.00,CLR,,0.00,WeatherDisplay:10.37,2013-01-21 12:20:00,
2013-01-21 06:25:00,-12.5,-22.4,29.97,WNW,291,9.0,11.0,60,0.00,CLR,,0.00,WeatherDisplay:10.37,2013-01-21 12:25:00,
2013-01-21 06:30:00,-12.5,-22.4,29.98,WNW,295,5.0,5.0,60,0.00,CLR,,0.00,WeatherDisplay:10.37,2013-01-21 12:30:00,
2013-01-21 06:35:00,-12.6,-22.6,29.97,WNW,294,0.0,14.0,60,0.00,CLR,,0.00,WeatherDisplay:10.37,2013-01-21 12:35:00,
2013-01-21 06:40:00,-12.6,-22.6,29.97,West,267,5.0,6.0,60,0.00,CLR,,0.00,WeatherDisplay:10.37,2013-01-21 12:40:00,
2013-01-21 06:45:00,-12.8,-22.8,29.97,West,263,5.0,6.0,60,0.00,CLR,,0.00,WeatherDisplay:10.37,2013-01-21 12:45:00,
2013-01-21 06:50:00,-12.8,-22.8,29.97,West,281,8.0,8.0,60,0.00,CLR,,0.00,WeatherDisplay:10.37,2013-01-21 12:50:00,
2013-01-21 06:55:00,-13.0,-22.6,29.97,WNW,290,2.0,10.0,61,0.00,CLR,,0.00,WeatherDisplay:10.37,2013-01-21 12:55:00,
2013-01-21 07:00:00,-13.0,-22.6,29.97,NW,304,1.0,10.0,61,0.00,CLR,,0.00,WeatherDisplay:10.37,2013-01-21 13:00:00,
2013-01-21 07:05:00,-13.2,-22.8,29.97,WNW,303,0.0,9.0,61,0.00,CLR,,0.00,WeatherDisplay:10.37,2013-01-21 13:05:00,
2013-01-21 07:10:00,-13.2,-22.8,29.97,WNW,298,7.0,8.0,61,0.00,CLR,,0.00,WeatherDisplay:10.37,2013-01-21 13:10:00,
2013-01-21 07:15:00,-13.2,-22.8,29.97,WNW,295,6.0,7.0,61,0.00,CLR,,0.00,WeatherDisplay:10.37,2013-01-21 13:15:00,
2013-01-21 07:20:00,-13.2,-22.8,29.98,WNW,291,8.0,9.0,61,0.00,CLR,,0.00,WeatherDisplay:10.37,2013-01-21 13:20:00,
2013-01-21 07:25:00,-13.4,-23.0,29.98,WNW,300,6.0,8.0,61,0.00,CLR,,0.00,WeatherDisplay:10.37,2013-01-21 13:25:00,
2013-01-21 07:30:00,-13.4,-22.7,29.98,WNW,290,6.0,8.0,62,0.00,CLR,,0.00,WeatherDisplay:10.37,2013-01-21 13:30:00,
2013-01-21 07:35:00,-13.4,-22.7,29.98,WNW,295,2.0,8.0,62,0.00,CLR,,0.00,WeatherDisplay:10.37,2013-01-21 13:35:00,
2013-01-21 07:40:00,-13.5,-22.8,29.98,West,279,6.0,8.0,62,0.00,CLR,,0.00,WeatherDisplay:10.37,2013-01-21 13:40:00,
2013-01-21 07:45:00,-13.7,-23.0,29.98,West,271,9.0,12.0,62,0.00,CLR,,0.00,WeatherDisplay:10.37,2013-01-21 13:45:00,
2013-01-21 07:50:00,-13.5,-22.8,29.98,West,260,7.0,7.0,62,0.00,CLR,,0.00,WeatherDisplay:10.37,2013-01-21 13:50:00,
2013-01-21 07:55:00,-13.5,-22.8,29.98,WSW,258,0.0,0.0,62,0.00,CLR,,0.00,WeatherDisplay:10.37,2013-01-21 13:55:00,
2013-01-21 08:00:00,-13.5,-22.8,29.98,West,277,5.0,7.0,62,0.00,CLR,,0.00,WeatherDisplay:10.37,2013-01-21 14:00:00,
2013-01-21 08:05:00,-13.5,-22.8,29.98,WNW,288,5.0,7.0,62,0.00,CLR,,0.00,WeatherDisplay:10.37,2013-01-21 14:05:00,
2013-01-21 08:10:00,-13.5,-22.8,29.99,WNW,286,2.0,9.0,62,0.00,CLR,,0.00,WeatherDisplay:10.37,2013-01-21 14:10:00,
2013-01-21 08:15:00,-13.5,-22.8,29.99,WNW,293,1.0,9.0,62,0.00,CLR,,0.00,WeatherDisplay:10.37,2013-01-21 14:15:00,
2013-01-21 08:20:00,-13.5,-22.8,29.99,WNW,300,13.0,13.0,62,0.00,CLR,,0.00,WeatherDisplay:10.37,2013-01-21 14:20:00,
2013-01-21 08:25:00,-13.4,-22.4,29.99,WNW,287,5.0,6.0,63,0.00,CLR,,0.00,WeatherDisplay:10.37,2013-01-21 14:25:00,
2013-01-21 08:30:00,-13.2,-22.2,29.99,WNW,292,5.0,7.0,63,0.00,CLR,,0.00,WeatherDisplay:10.37,2013-01-21 14:30:00,
2013-01-21 08:35:00,-13.2,-22.2,29.99,WNW,282,6.0,7.0,63,0.00,CLR,,0.00,WeatherDisplay:10.37,2013-01-21 14:35:00,
2013-01-21 08:40:00,-13.0,-22.0,29.99,West,272,0.0,0.0,63,0.00,CLR,,0.00,WeatherDisplay:10.37,2013-01-21 14:40:00,
2013-01-21 08:45:00,-13.0,-22.3,29.99,West,280,0.0,1.0,62,0.00,CLR,,0.00,WeatherDisplay:10.37,2013-01-21 14:45:00,
2013-01-21 08:50:00,-12.8,-22.2,29.99,NW,309,0.0,6.0,62,0.00,CLR,,0.00,WeatherDisplay:10.37,2013-01-21 14:50:00,
2013-01-21 08:55:00,-12.6,-22.0,29.99,NW,311,0.0,14.0,62,0.00,CLR,,0.00,WeatherDisplay:10.37,2013-01-21 14:55:00,
2013-01-21 09:00:00,-12.5,-21.8,30.00,WNW,286,0.0,14.0,62,0.00,CLR,,0.00,WeatherDisplay:10.37,2013-01-21 15:00:00,
2013-01-21 09:05:00,-12.5,-21.8,30.00,West,278,6.0,8.0,62,0.00,CLR,,0.00,WeatherDisplay:10.37,2013-01-21 15:05:00,
2013-01-21 09:10:00,-12.5,-21.8,30.00,WNW,297,8.0,8.0,62,0.00,CLR,,0.00,WeatherDisplay:10.37,2013-01-21 15:10:00,
2013-01-21 09:15:00,-12.3,-21.6,30.00,NW,310,2.0,8.0,62,0.00,CLR,,0.00,WeatherDisplay:10.37,2013-01-21 15:15:00,
2013-01-21 09:20:00,-12.1,-21.5,30.00,NW,311,16.0,16.0,62,0.00,CLR,,0.00,WeatherDisplay:10.37,2013-01-21 15:20:00,
2013-01-21 09:25:00,-11.9,-21.6,30.01,West,268,6.0,16.0,61,0.00,CLR,,0.00,WeatherDisplay:10.37,2013-01-21 15:25:00,
2013-01-21 09:30:00,-11.9,-21.6,30.01,West,267,7.0,9.0,61,0.00,CLR,,0.00,WeatherDisplay:10.37,2013-01-21 15:30:00,
2013-01-21 09:35:00,-11.6,-21.3,30.01,WNW,300,8.0,9.0,61,0.00,CLR,,0.00,WeatherDisplay:10.37,2013-01-21 15:35:00,
2013-01-21 09:40:00,-11.4,-21.1,30.01,WNW,301,1.0,9.0,61,0.00,CLR,,0.00,WeatherDisplay:10.37,2013-01-21 15:40:00,
2013-01-21 09:45:00,-11.4,-21.1,30.01,NW,308,6.0,8.0,61,0.00,CLR,,0.00,WeatherDisplay:10.37,2013-01-21 15:45:00,
2013-01-21 09:50:00,-11.0,-20.8,30.01,NW,325,10.0,12.0,61,0.00,CLR,,0.00,WeatherDisplay:10.37,2013-01-21 15:50:00,
2013-01-21 09:55:00,-11.0,-20.8,30.01,NW,326,7.0,10.0,61,0.00,CLR,,0.00,WeatherDisplay:10.37,2013-01-21 15:55:00,
2013-01-21 10:00:00,-10.8,-20.9,30.01,NW,318,9.0,9.0,60,0.00,CLR,,0.00,WeatherDisplay:10.37,2013-01-21 16:00:00,
2013-01-21 10:05:00,-10.8,-21.2,30.01,NNW,331,12.0,14.0,59,0.00,CLR,,0.00,WeatherDisplay:10.37,2013-01-21 16:05:00,
2013-01-21 10:10:00,-10.7,-21.1,30.01,NW,322,12.0,16.0,59,0.00,CLR,,0.00,WeatherDisplay:10.37,2013-01-21 16:10:00,
2013-01-21 10:15:00,-10.5,-20.9,30.02,NW,318,5.0,16.0,59,0.00,CLR,,0.00,WeatherDisplay:10.37,2013-01-21 16:15:00,
2013-01-21 10:20:00,-10.5,-20.9,30.01,NW,316,7.0,12.0,59,0.00,CLR,,0.00,WeatherDisplay:10.37,2013-01-21 16:20:00,
2013-01-21 10:25:00,-10.1,-20.5,30.01,WNW,282,5.0,7.0,59,0.00,CLR,,0.00,WeatherDisplay:10.37,2013-01-21 16:25:00,
2013-01-21 10:30:00,-9.8,-20.2,30.01,WNW,301,12.0,14.0,59,0.00,CLR,,0.00,WeatherDisplay:10.37,2013-01-21 16:30:00,
2013-01-21 10:35:00,-9.7,-20.2,30.01,NW,312,12.0,12.0,59,0.00,CLR,,0.00,WeatherDisplay:10.37,2013-01-21 16:35:00,
2013-01-21 10:40:00,-9.6,-20.0,30.01,WNW,301,9.0,10.0,59,0.00,CLR,,0.00,WeatherDisplay:10.37,2013-01-21 16:40:00,
2013-01-21 10:45:00,-9.4,-20.2,30.01,NW,325,14.0,14.0,58,0.00,CLR,,0.00,WeatherDisplay:10.37,2013-01-21 16:45:00,
2013-01-21 10:50:00,-9.2,-20.0,30.01,NW,312,13.0,14.0,58,0.00,CLR,,0.00,WeatherDisplay:10.37,2013-01-21 16:50:00,
2013-01-21 10:55:00,-9.0,-20.2,30.01,WNW,293,12.0,17.0,57,0.00,CLR,,0.00,WeatherDisplay:10.37,2013-01-21 16:55:00,
2013-01-21 11:00:00,-8.9,-19.7,30.01,WNW,296,2.0,10.0,58,0.00,CLR,,0.00,WeatherDisplay:10.37,2013-01-21 17:00:00,
2013-01-21 11:05:00,-8.3,-19.2,30.01,WNW,303,3.0,10.0,58,0.00,CLR,,0.00,WeatherDisplay:10.37,2013-01-21 17:05:00,
2013-01-21 11:10:00,-8.4,-19.5,30.00,West,266,8.0,10.0,57,0.00,CLR,,0.00,WeatherDisplay:10.37,2013-01-21 17:10:00,
2013-01-21 11:15:00,-8.3,-19.5,30.00,West,275,5.0,9.0,57,0.00,CLR,,0.00,WeatherDisplay:10.37,2013-01-21 17:15:00,
2013-01-21 11:20:00,-8.3,-19.5,30.00,WNW,301,7.0,8.0,57,0.00,CLR,,0.00,WeatherDisplay:10.37,2013-01-21 17:20:00,
2013-01-21 11:25:00,-8.0,-19.6,30.00,NW,320,13.0,13.0,56,0.00,CLR,,0.00,WeatherDisplay:10.37,2013-01-21 17:25:00,
2013-01-21 11:30:00,-8.0,-19.2,29.99,NW,315,8.0,10.0,57,0.00,CLR,,0.00,WeatherDisplay:10.37,2013-01-21 17:30:00,
2013-01-21 11:35:00,-7.8,-19.3,29.99,NNW,343,17.0,20.0,56,0.00,CLR,,0.00,WeatherDisplay:10.37,2013-01-21 17:35:00,
2013-01-21 11:40:00,-7.8,-19.3,29.99,NNW,341,3.0,10.0,56,0.00,CLR,,0.00,WeatherDisplay:10.37,2013-01-21 17:40:00,
2013-01-21 11:45:00,-7.8,-19.3,29.99,NW,316,9.0,10.0,56,0.00,CLR,,0.00,WeatherDisplay:10.37,2013-01-21 17:45:00,
2013-01-21 11:50:00,-7.4,-19.0,29.98,NW,305,14.0,14.0,56,0.00,CLR,,0.00,WeatherDisplay:10.37,2013-01-21 17:50:00,
2013-01-21 11:55:00,-7.3,-18.9,29.98,WNW,284,1.0,13.0,56,0.00,CLR,,0.00,WeatherDisplay:10.37,2013-01-21 17:55:00,
2013-01-21 12:00:00,-7.1,-18.7,29.98,WNW,302,6.0,6.0,56,0.00,CLR,,0.00,WeatherDisplay:10.37,2013-01-21 18:00:00,
2013-01-21 12:05:00,-6.9,-18.8,29.97,WNW,292,6.0,6.0,55,0.00,CLR,,0.00,WeatherDisplay:10.37,2013-01-21 18:05:00,
2013-01-21 12:10:00,-6.9,-18.8,29.97,WSW,255,6.0,7.0,55,0.00,CLR,,0.00,WeatherDisplay:10.37,2013-01-21 18:10:00,
2013-01-21 12:15:00,-6.7,-18.7,29.97,WNW,283,8.0,8.0,55,0.00,CLR,,0.00,WeatherDisplay:10.37,2013-01-21 18:15:00,
2013-01-21 12:20:00,-6.9,-19.2,29.96,NW,313,13.0,22.0,54,0.00,CLR,,0.00,WeatherDisplay:10.37,2013-01-21 18:20:00,
2013-01-21 12:25:00,-6.9,-19.2,29.97,NNW,340,8.0,22.0,54,0.00,CLR,,0.00,WeatherDisplay:10.37,2013-01-21 18:25:00,
2013-01-21 12:30:00,-6.5,-18.9,29.96,NW,321,12.0,17.0,54,0.00,CLR,,0.00,WeatherDisplay:10.37,2013-01-21 18:30:00,
2013-01-21 12:35:00,-6.2,-18.5,29.96,WNW,285,9.0,10.0,54,0.00,CLR,,0.00,WeatherDisplay:10.37,2013-01-21 18:35:00,
2013-01-21 12:40:00,-6.4,-18.7,29.96,WNW,302,9.0,13.0,54,0.00,CLR,,0.00,WeatherDisplay:10.37,2013-01-21 18:40:00,
2013-01-21 12:45:00,-6.5,-18.9,29.95,NW,318,9.0,13.0,54,0.00,CLR,,0.00,WeatherDisplay:10.37,2013-01-21 18:45:00,
2013-01-21 12:50:00,-6.5,-19.2,29.95,NW,306,9.0,16.0,53,0.00,CLR,,0.00,WeatherDisplay:10.37,2013-01-21 18:50:00,
2013-01-21 12:55:00,-6.5,-19.2,29.95,WNW,289,8.0,16.0,53,0.00,CLR,,0.00,WeatherDisplay:10.37,2013-01-21 18:55:00,
2013-01-21 13:00:00,-6.5,-19.2,29.95,WNW,294,9.0,13.0,53,0.00,CLR,,0.00,WeatherDisplay:10.37,2013-01-21 19:00:00,
2013-01-21 13:10:00,-6.0,-18.3,29.95,West,267,1.0,7.0,54,0.00,CLR,,0.00,WeatherDisplay:10.37,2013-01-21 19:10:00,
2013-01-21 13:15:00,-6.0,-18.3,29.95,West,274,9.0,9.0,54,0.00,CLR,,0.00,WeatherDisplay:10.37,2013-01-21 19:15:00,
2013-01-21 13:20:00,-5.8,-18.2,29.95,WNW,303,7.0,9.0,54,0.00,CLR,,0.00,WeatherDisplay:10.37,2013-01-21 19:20:00,
2013-01-21 13:25:00,-5.6,-18.0,29.95,WNW,303,8.0,10.0,54,0.00,CLR,,0.00,WeatherDisplay:10.37,2013-01-21 19:25:00,
2013-01-21 13:30:00,-5.4,-17.8,29.96,WNW,286,7.0,7.0,54,0.00,CLR,,0.00,WeatherDisplay:10.37,2013-01-21 19:30:00,
2013-01-21 13:35:00,-5.3,-17.7,29.95,West,275,6.0,7.0,54,0.00,CLR,,0.00,WeatherDisplay:10.37,2013-01-21 19:35:00,
2013-01-21 13:40:00,-5.3,-17.3,29.95,WSW,243,7.0,14.0,55,0.00,CLR,,0.00,WeatherDisplay:10.37,2013-01-21 19:40:00,
2013-01-21 13:45:00,-5.1,-17.1,29.95,WSW,244,5.0,6.0,55,0.00,CLR,,0.00,WeatherDisplay:10.37,2013-01-21 19:45:00,
2013-01-21 13:50:00,-5.1,-17.5,29.95,West,269,5.0,7.0,54,0.00,CLR,,0.00,WeatherDisplay:10.37,2013-01-21 19:50:00,
2013-01-21 13:55:00,-5.0,-17.0,29.95,West,273,8.0,9.0,55,0.00,CLR,,0.00,WeatherDisplay:10.37,2013-01-21 19:55:00,
2013-01-21 14:00:00,-4.9,-17.0,29.94,WSW,253,6.0,12.0,55,0.00,CLR,,0.00,WeatherDisplay:10.37,2013-01-21 20:00:00,
2013-01-21 14:05:00,-4.8,-16.9,29.94,WSW,255,2.0,10.0,55,0.00,CLR,,0.00,WeatherDisplay:10.37,2013-01-21 20:05:00,
2013-01-21 14:10:00,-4.7,-16.8,29.94,West,260,8.0,10.0,55,0.00,CLR,,0.00,WeatherDisplay:10.37,2013-01-21 20:10:00,
2013-01-21 14:15:00,-4.7,-16.8,29.94,West,272,7.0,10.0,55,0.00,CLR,,0.00,WeatherDisplay:10.37,2013-01-21 20:15:00,
2013-01-21 14:20:00,-4.7,-17.2,29.94,West,269,5.0,11.0,54,0.00,CLR,,0.00,WeatherDisplay:10.37,2013-01-21 20:20:00,
2013-01-21 14:25:00,-5.1,-17.9,29.95,West,265,10.0,12.0,53,0.00,CLR,,0.00,WeatherDisplay:10.37,2013-01-21 20:25:00,
2013-01-21 14:30:00,-5.1,-17.5,29.95,West,263,8.0,8.0,54,0.00,CLR,,0.00,WeatherDisplay:10.37,2013-01-21 20:30:00,
2013-01-21 14:35:00,-4.9,-17.3,29.95,SW,235,1.0,10.0,54,0.00,CLR,,0.00,WeatherDisplay:10.37,2013-01-21 20:35:00,
2013-01-21 14:40:00,-5.3,-18.0,29.95,WSW,245,6.0,10.0,53,0.00,CLR,,0.00,WeatherDisplay:10.37,2013-01-21 20:40:00,
2013-01-21 14:45:00,-5.3,-17.7,29.95,West,271,7.0,8.0,54,0.00,CLR,,0.00,WeatherDisplay:10.37,2013-01-21 20:45:00,
2013-01-21 14:50:00,-5.3,-17.7,29.95,WNW,290,10.0,10.0,54,0.00,CLR,,0.00,WeatherDisplay:10.37,2013-01-21 20:50:00,
2013-01-21 14:55:00,-5.3,-17.7,29.95,WNW,286,2.0,10.0,54,0.00,CLR,,0.00,WeatherDisplay:10.37,2013-01-21 20:55:00,
2013-01-21 15:00:00,-5.3,-18.0,29.95,WNW,287,7.0,9.0,53,0.00,CLR,,0.00,WeatherDisplay:10.37,2013-01-21 21:00:00,
2013-01-21 15:05:00,-5.3,-18.0,29.95,WNW,287,7.0,9.0,53,0.00,CLR,,0.00,WeatherDisplay:10.37,2013-01-21 21:05:00,
2013-01-21 15:10:00,-5.6,-18.0,29.95,West,265,17.0,17.0,54,0.00,CLR,,0.00,WeatherDisplay:10.37,2013-01-21 21:10:00,
2013-01-21 15:15:00,-5.6,-18.0,29.95,West,262,2.0,15.0,54,0.00,CLR,,0.00,WeatherDisplay:10.37,2013-01-21 21:15:00,
2013-01-21 15:20:00,-5.4,-17.8,29.95,West,269,0.0,8.0,54,0.00,CLR,,0.00,WeatherDisplay:10.37,2013-01-21 21:20:00,
2013-01-21 15:25:00,-5.4,-17.8,29.94,West,270,5.0,7.0,54,0.00,CLR,,0.00,WeatherDisplay:10.37,2013-01-21 21:25:00,
2013-01-21 15:30:00,-5.6,-18.4,29.94,NW,305,7.0,9.0,53,0.00,CLR,,0.00,WeatherDisplay:10.37,2013-01-21 21:30:00,
2013-01-21 15:35:00,-5.6,-18.0,29.95,NW,304,0.0,14.0,54,0.00,CLR,,0.00,WeatherDisplay:10.37,2013-01-21 21:35:00,
2013-01-21 15:40:00,-5.6,-18.0,29.95,WNW,300,10.0,14.0,54,0.00,CLR,,0.00,WeatherDisplay:10.37,2013-01-21 21:40:00,
2013-01-21 15:50:00,-5.8,-18.6,29.94,NW,304,17.0,18.0,53,0.00,CLR,,0.00,WeatherDisplay:10.37,2013-01-21 21:50:00,
2013-01-21 15:55:00,-6.0,-18.7,29.94,WNW,292,5.0,7.0,53,0.00,CLR,,0.00,WeatherDisplay:10.37,2013-01-21 21:55:00,
2013-01-21 16:00:00,-6.0,-18.3,29.94,West,277,14.0,15.0,54,0.00,CLR,,0.00,WeatherDisplay:10.37,2013-01-21 22:00:00,
2013-01-21 16:05:00,-6.0,-18.3,29.94,West,268,6.0,15.0,54,0.00,CLR,,0.00,WeatherDisplay:10.37,2013-01-21 22:05:00,
2013-01-21 16:10:00,-6.1,-18.5,29.94,West,274,7.0,10.0,54,0.00,CLR,,0.00,WeatherDisplay:10.37,2013-01-21 22:10:00,
2013-01-21 16:15:00,-6.3,-18.7,29.94,WNW,299,5.0,10.0,54,0.00,CLR,,0.00,WeatherDisplay:10.37,2013-01-21 22:15:00,
2013-01-21 16:20:00,-6.4,-18.7,29.94,WNW,302,5.0,8.0,54,0.00,CLR,,0.00,WeatherDisplay:10.37,2013-01-21 22:20:00,
2013-01-21 16:25:00,-6.5,-18.5,29.94,West,280,2.0,8.0,55,0.00,CLR,,0.00,WeatherDisplay:10.37,2013-01-21 22:25:00,
2013-01-21 16:30:00,-6.5,-18.5,29.94,West,260,5.0,5.0,55,0.00,CLR,,0.00,WeatherDisplay:10.37,2013-01-21 22:30:00,
2013-01-21 16:35:00,-6.7,-18.7,29.94,WNW,296,7.0,9.0,55,0.00,CLR,,0.00,WeatherDisplay:10.37,2013-01-21 22:35:00,
2013-01-21 16:40:00,-6.9,-18.8,29.94,WNW,282,8.0,10.0,55,0.00,CLR,,0.00,WeatherDisplay:10.37,2013-01-21 22:40:00,
2013-01-21 16:45:00,-6.9,-18.8,29.94,West,263,10.0,14.0,55,0.00,CLR,,0.00,WeatherDisplay:10.37,2013-01-21 22:45:00,
2013-01-21 16:50:00,-7.1,-18.7,29.94,West,270,7.0,14.0,56,0.00,CLR,,0.00,WeatherDisplay:10.37,2013-01-21 22:50:00,
2013-01-21 16:55:00,-7.1,-18.7,29.94,West,278,0.0,5.0,56,0.00,CLR,,0.00,WeatherDisplay:10.37,2013-01-21 22:55:00,
2013-01-21 17:00:00,-7.4,-19.0,29.94,WNW,285,0.0,0.0,56,0.00,CLR,,0.00,WeatherDisplay:10.37,2013-01-21 23:00:00,
2013-01-21 17:05:00,-7.4,-19.0,29.95,WNW,297,2.0,3.0,56,0.00,CLR,,0.00,WeatherDisplay:10.37,2013-01-21 23:05:00,
2013-01-21 17:10:00,-7.8,-19.0,29.94,West,278,5.0,6.0,57,0.00,CLR,,0.00,WeatherDisplay:10.37,2013-01-21 23:10:00,
2013-01-21 17:15:00,-7.8,-19.0,29.94,West,263,5.0,6.0,57,0.00,CLR,,0.00,WeatherDisplay:10.37,2013-01-21 23:15:00,
2013-01-21 17:20:00,-8.0,-19.2,29.94,WSW,252,3.0,6.0,57,0.00,CLR,,0.00,WeatherDisplay:10.37,2013-01-21 23:20:00,
2013-01-21 17:25:00,-8.0,-19.2,29.94,West,261,0.0,0.0,57,0.00,CLR,,0.00,WeatherDisplay:10.37,2013-01-21 23:25:00,
2013-01-21 17:30:00,-8.0,-18.8,29.94,West,264,7.0,8.0,58,0.00,CLR,,0.00,WeatherDisplay:10.37,2013-01-21 23:30:00,
2013-01-21 17:35:00,-8.2,-19.0,29.94,West,260,0.0,8.0,58,0.00,CLR,,0.00,WeatherDisplay:10.37,2013-01-21 23:35:00,
2013-01-21 17:40:00,-8.3,-19.2,29.94,West,273,0.0,2.0,58,0.00,CLR,,0.00,WeatherDisplay:10.37,2013-01-21 23:40:00,
2013-01-21 17:45:00,-8.3,-19.2,29.94,WNW,288,7.0,8.0,58,0.00,CLR,,0.00,WeatherDisplay:10.37,2013-01-21 23:45:00,
2013-01-21 17:50:00,-8.3,-19.2,29.93,WNW,284,0.0,8.0,58,0.00,CLR,,0.00,WeatherDisplay:10.37,2013-01-21 23:50:00,
2013-01-21 17:55:00,-8.3,-18.8,29.93,WNW,286,0.0,7.0,59,0.00,CLR,,0.00,WeatherDisplay:10.37,2013-01-21 23:55:00,
2013-01-21 18:00:00,-8.5,-19.3,29.94,WNW,289,0.0,0.0,58,0.00,CLR,,0.00,WeatherDisplay:10.37,2013-01-22 00:00:00,
2013-01-21 18:05:00,-8.5,-19.0,29.94,WNW,286,0.0,3.0,59,0.00,CLR,,0.00,WeatherDisplay:10.37,2013-01-22 00:05:00,
2013-01-21 18:10:00,-8.7,-19.2,29.94,West,277,0.0,3.0,59,0.00,CLR,,0.00,WeatherDisplay:10.37,2013-01-22 00:10:00,
2013-01-21 18:15:00,-8.7,-19.2,29.94,West,262,9.0,9.0,59,0.00,CLR,,0.00,WeatherDisplay:10.37,2013-01-22 00:15:00,
2013-01-21 18:20:00,-8.7,-19.2,29.94,West,279,0.0,9.0,59,0.00,CLR,,0.00,WeatherDisplay:10.37,2013-01-22 00:20:00,
2013-01-21 18:25:00,-8.7,-19.2,29.94,WNW,283,0.0,0.0,59,0.00,CLR,,0.00,WeatherDisplay:10.37,2013-01-22 00:25:00,
2013-01-21 18:30:00,-8.7,-18.9,29.94,WNW,283,0.0,0.0,60,0.00,CLR,,0.00,WeatherDisplay:10.37,2013-01-22 00:30:00,
2013-01-21 18:35:00,-8.8,-19.0,29.94,West,271,2.0,2.0,60,0.00,CLR,,0.00,WeatherDisplay:10.37,2013-01-22 00:35:00,
2013-01-21 18:40:00,-8.9,-19.0,29.94,West,267,0.0,0.0,60,0.00,CLR,,0.00,WeatherDisplay:10.37,2013-01-22 00:40:00,
2013-01-21 18:45:00,-8.9,-19.0,29.94,West,275,0.0,0.0,60,0.00,CLR,,0.00,WeatherDisplay:10.37,2013-01-22 00:45:00,
2013-01-21 18:50:00,-9.0,-19.2,29.94,West,275,0.0,0.0,60,0.00,CLR,,0.00,WeatherDisplay:10.37,2013-01-22 00:50:00,
2013-01-21 18:55:00,-9.0,-19.2,29.94,West,269,0.0,0.0,60,0.00,CLR,,0.00,WeatherDisplay:10.37,2013-01-22 00:55:00,
2013-01-21 19:00:00,-9.0,-19.2,29.94,WNW,285,0.0,5.0,60,0.00,CLR,,0.00,WeatherDisplay:10.37,2013-01-22 01:00:00,
2013-01-21 19:05:00,-8.9,-19.0,29.95,West,281,0.0,0.0,60,0.00,CLR,,0.00,WeatherDisplay:10.37,2013-01-22 01:05:00,
2013-01-21 19:10:00,-9.0,-19.2,29.95,West,273,0.0,0.0,60,0.00,CLR,,0.00,WeatherDisplay:10.37,2013-01-22 01:10:00,
2013-01-21 19:15:00,-9.2,-19.0,29.95,WNW,284,0.0,0.0,61,0.00,CLR,,0.00,WeatherDisplay:10.37,2013-01-22 01:15:00,
2013-01-21 19:20:00,-9.2,-19.0,29.95,West,280,0.0,0.0,61,0.00,CLR,,0.00,WeatherDisplay:10.37,2013-01-22 01:20:00,
2013-01-21 19:25:00,-9.4,-19.2,29.95,West,270,0.0,0.0,61,0.00,CLR,,0.00,WeatherDisplay:10.37,2013-01-22 01:25:00,
2013-01-21 19:30:00,-9.6,-19.4,29.95,West,270,0.0,0.0,61,0.00,CLR,,0.00,WeatherDisplay:10.37,2013-01-22 01:30:00,
2013-01-21 19:35:00,-9.6,-19.4,29.94,West,265,0.0,0.0,61,0.00,CLR,,0.00,WeatherDisplay:10.37,2013-01-22 01:35:00,
2013-01-21 19:40:00,-9.7,-19.2,29.94,West,266,0.0,0.0,62,0.00,CLR,,0.00,WeatherDisplay:10.37,2013-01-22 01:40:00,
2013-01-21 19:45:00,-9.8,-19.2,29.95,West,270,0.0,0.0,62,0.00,CLR,,0.00,WeatherDisplay:10.37,2013-01-22 01:45:00,
2013-01-21 19:50:00,-9.6,-19.1,29.95,West,270,0.0,0.0,62,0.00,CLR,,0.00,WeatherDisplay:10.37,2013-01-22 01:50:00,
2013-01-21 19:55:00,-9.6,-19.1,29.95,West,265,0.0,0.0,62,0.00,CLR,,0.00,WeatherDisplay:10.37,2013-01-22 01:55:00,
2013-01-21 20:00:00,-9.6,-19.1,29.95,West,262,0.0,0.0,62,0.00,CLR,,0.00,WeatherDisplay:10.37,2013-01-22 02:00:00,
2013-01-21 20:05:00,-9.6,-19.1,29.95,West,267,0.0,0.0,62,0.00,CLR,,0.00,WeatherDisplay:10.37,2013-01-22 02:05:00,
2013-01-21 20:10:00,-9.6,-19.1,29.95,West,276,0.0,0.0,62,0.00,CLR,,0.00,WeatherDisplay:10.37,2013-01-22 02:10:00,
2013-01-21 20:15:00,-9.6,-18.8,29.95,West,280,0.0,0.0,63,0.00,CLR,,0.00,WeatherDisplay:10.37,2013-01-22 02:15:00,
2013-01-21 20:20:00,-9.4,-18.6,29.95,West,274,0.0,0.0,63,0.00,CLR,,0.00,WeatherDisplay:10.37,2013-01-22 02:20:00,
2013-01-21 20:25:00,-9.2,-18.4,29.95,West,279,0.0,0.0,63,0.00,CLR,,0.00,WeatherDisplay:10.37,2013-01-22 02:25:00,
2013-01-21 20:30:00,-9.4,-18.6,29.95,West,279,0.0,2.0,63,0.00,CLR,,0.00,WeatherDisplay:10.37,2013-01-22 02:30:00,
2013-01-21 20:35:00,-9.3,-18.5,29.95,West,273,2.0,2.0,63,0.00,CLR,,0.00,WeatherDisplay:10.37,2013-01-22 02:35:00,
2013-01-21 20:40:00,-9.2,-18.4,29.95,West,277,0.0,0.0,63,0.00,CLR,,0.00,WeatherDisplay:10.37,2013-01-22 02:40:00,
2013-01-21 20:45:00,-9.2,-18.4,29.95,West,279,0.0,0.0,63,0.00,CLR,,0.00,WeatherDisplay:10.37,2013-01-22 02:45:00,
2013-01-21 20:50:00,-9.4,-18.6,29.95,WNW,287,0.0,0.0,63,0.00,CLR,,0.00,WeatherDisplay:10.37,2013-01-22 02:50:00,
2013-01-21 20:55:00,-9.4,-18.6,29.95,WNW,287,0.0,0.0,63,0.00,CLR,,0.00,WeatherDisplay:10.37,2013-01-22 02:55:00,
2013-01-21 21:00:00,-9.4,-18.6,29.95,West,276,0.0,0.0,63,0.00,CLR,,0.00,WeatherDisplay:10.37,2013-01-22 03:00:00,
2013-01-21 21:05:00,-9.6,-18.8,29.95,WNW,284,0.0,8.0,63,0.00,CLR,,0.00,WeatherDisplay:10.37,2013-01-22 03:05:00,
2013-01-21 21:10:00,-9.6,-18.8,29.95,West,271,7.0,9.0,63,0.00,CLR,,0.00,WeatherDisplay:10.37,2013-01-22 03:10:00,
2013-01-21 21:15:00,-9.6,-18.8,29.96,West,272,0.0,2.0,63,0.00,CLR,,0.00,WeatherDisplay:10.37,2013-01-22 03:15:00,
2013-01-21 21:20:00,-9.6,-18.8,29.95,WNW,282,0.0,0.0,63,0.00,CLR,,0.00,WeatherDisplay:10.37,2013-01-22 03:20:00,
2013-01-21 21:25:00,-9.6,-18.8,29.96,West,271,0.0,0.0,63,0.00,CLR,,0.00,WeatherDisplay:10.37,2013-01-22 03:25:00,
2013-01-21 21:30:00,-9.6,-18.8,29.96,West,277,0.0,0.0,63,0.00,CLR,,0.00,WeatherDisplay:10.37,2013-01-22 03:30:00,
2013-01-21 21:35:00,-9.6,-18.5,29.96,WNW,282,0.0,0.0,64,0.00,CLR,,0.00,WeatherDisplay:10.37,2013-01-22 03:35:00,
2013-01-21 21:40:00,-9.6,-18.5,29.96,West,268,2.0,7.0,64,0.00,CLR,,0.00,WeatherDisplay:10.37,2013-01-22 03:40:00,
2013-01-21 21:45:00,-9.8,-18.9,29.96,West,268,0.0,0.0,63,0.00,CLR,,0.00,WeatherDisplay:10.37,2013-01-22 03:45:00,
2013-01-21 21:50:00,-9.8,-19.0,29.96,West,274,0.0,0.0,63,0.00,CLR,,0.00,WeatherDisplay:10.37,2013-01-22 03:50:00,
2013-01-21 21:55:00,-9.9,-19.1,29.96,West,265,0.0,0.0,63,0.00,CLR,,0.00,WeatherDisplay:10.37,2013-01-22 03:55:00,
2013-01-21 22:00:00,-10.1,-19.0,29.96,West,272,0.0,0.0,64,0.00,CLR,,0.00,WeatherDisplay:10.37,2013-01-22 04:00:00,
2013-01-21 22:05:00,-10.2,-19.0,29.96,West,276,0.0,0.0,64,0.00,CLR,,0.00,WeatherDisplay:10.37,2013-01-22 04:05:00,
2013-01-21 22:10:00,-10.3,-19.1,29.96,West,275,0.0,0.0,64,0.00,CLR,,0.00,WeatherDisplay:10.37,2013-01-22 04:10:00,
2013-01-21 22:15:00,-10.5,-19.3,29.96,WNW,290,2.0,3.0,64,0.00,CLR,,0.00,WeatherDisplay:10.37,2013-01-22 04:15:00,
2013-01-21 22:20:00,-10.5,-19.3,29.96,West,279,0.0,3.0,64,0.00,CLR,,0.00,WeatherDisplay:10.37,2013-01-22 04:20:00,
2013-01-21 22:25:00,-10.5,-19.3,29.96,West,271,0.0,0.0,64,0.00,CLR,,0.00,WeatherDisplay:10.37,2013-01-22 04:25:00,
2013-01-21 22:30:00,-10.5,-19.3,29.96,West,274,0.0,0.0,64,0.00,CLR,,0.00,WeatherDisplay:10.37,2013-01-22 04:30:00,
2013-01-21 22:35:00,-10.5,-19.3,29.96,West,274,0.0,0.0,64,0.00,CLR,,0.00,WeatherDisplay:10.37,2013-01-22 04:35:00,
2013-01-21 22:40:00,-10.5,-19.3,29.96,West,275,0.0,0.0,64,0.00,CLR,,0.00,WeatherDisplay:10.37,2013-01-22 04:40:00,
2013-01-21 22:45:00,-10.7,-19.2,29.96,WNW,293,0.0,0.0,65,0.00,CLR,,0.00,WeatherDisplay:10.37,2013-01-22 04:45:00,
2013-01-21 22:50:00,-10.7,-19.2,29.96,WNW,295,0.0,0.0,65,0.00,CLR,,0.00,WeatherDisplay:10.37,2013-01-22 04:50:00,
2013-01-21 22:55:00,-10.8,-19.4,29.96,WNW,288,0.0,0.0,65,0.00,CLR,,0.00,WeatherDisplay:10.37,2013-01-22 04:55:00,
2013-01-21 23:00:00,-10.8,-19.4,29.96,West,280,0.0,0.0,65,0.00,CLR,,0.00,WeatherDisplay:10.37,2013-01-22 05:00:00,
2013-01-21 23:05:00,-11.0,-19.5,29.96,West,277,0.0,0.0,65,0.00,CLR,,0.00,WeatherDisplay:10.37,2013-01-22 05:05:00,
2013-01-21 23:10:00,-11.0,-19.5,29.96,West,269,0.0,0.0,65,0.00,CLR,,0.00,WeatherDisplay:10.37,2013-01-22 05:10:00,
2013-01-21 23:15:00,-11.0,-19.5,29.96,West,276,0.0,0.0,65,0.00,CLR,,0.00,WeatherDisplay:10.37,2013-01-22 05:15:00,
2013-01-21 23:20:00,-11.0,-19.5,29.96,WNW,284,0.0,0.0,65,0.00,CLR,,0.00,WeatherDisplay:10.37,2013-01-22 05:20:00,
2013-01-21 23:25:00,-11.0,-19.5,29.97,WNW,285,0.0,0.0,65,0.00,CLR,,0.00,WeatherDisplay:10.37,2013-01-22 05:25:00,
2013-01-21 23:30:00,-11.0,-19.5,29.97,WNW,292,0.0,0.0,65,0.00,CLR,,0.00,WeatherDisplay:10.37,2013-01-22 05:30:00,
2013-01-21 23:35:00,-11.0,-19.5,29.97,WNW,296,0.0,0.0,65,0.00,CLR,,0.00,WeatherDisplay:10.37,2013-01-22 05:35:00,
2013-01-21 23:40:00,-11.4,-19.9,29.97,WNW,290,0.0,0.0,65,0.00,CLR,,0.00,WeatherDisplay:10.37,2013-01-22 05:40:00,
2013-01-21 23:45:00,-11.4,-19.9,29.96,WNW,291,0.0,0.0,65,0.00,CLR,,0.00,WeatherDisplay:10.37,2013-01-22 05:45:00,
2013-01-21 23:50:00,-11.4,-19.9,29.97,WNW,298,0.0,0.0,65,0.00,CLR,,0.00,WeatherDisplay:10.37,2013-01-22 05:50:00,
2013-01-21 23:55:00,-11.4,-19.9,29.96,WNW,290,0.0,0.0,65,0.00,CLR,,0.00,WeatherDisplay:10.37,2013-01-22 05:55:00,